SB KEPS @ AMSAT $ORB06285.O Orbital Elements 06285.OSCAR
HR AMSAT ORBITAL ELEMENTS FOR OSCAR SATELLITES FROM WA5QGD FORT WORTH,TX October 12, 2006 Send SUBSCRIBE KEPS/UNSUBSCRIBE KEPS to majordomo@amsat.org only BID: ORB06285.O TO ALL RADIO AMATEURS BT
Satellite: AO-07 Catalog number: 07530 Epoch time: 06285.18284719 Element set: 702 Inclination: 101.5555 deg RA of node: 325.1356 deg Eccentricity: 0.0011872 Arg of perigee: 019.8220 deg Mean anomaly: 340.3312 deg Mean motion: 12.53571509 rev/day Decay rate: -2.8e-07 rev/day^2 Epoch rev: 46004 Checksum: 270
Satellite: UO-11 Catalog number: 14781 Epoch time: 06285.46051055 Element set: 197 Inclination: 098.2066 deg RA of node: 298.1702 deg Eccentricity: 0.0008199 Arg of perigee: 246.0822 deg Mean anomaly: 113.9548 deg Mean motion: 14.79467632 rev/day Decay rate: -1.73e-06 rev/day^2 Epoch rev: 21310 Checksum: 307
Satellite: RS-10/11 Catalog number: 18129 Epoch time: 06284.94828671 Element set: 0116 Inclination: 082.9214 deg RA of node: 241.7700 deg Eccentricity: 0.0012656 Arg of perigee: 122.4646 deg Mean anomaly: 237.7730 deg Mean motion: 13.72779204 rev/day Decay rate: 2.2e-07 rev/day^2 Epoch rev: 96717 Checksum: 305
Satellite: RS-15 Catalog number: 23439 Epoch time: 06284.82306055 Element set: 0985 Inclination: 064.8182 deg RA of node: 048.5827 deg Eccentricity: 0.0166313 Arg of perigee: 233.8378 deg Mean anomaly: 124.7059 deg Mean motion: 11.27551835 rev/day Decay rate: -3.9e-07 rev/day^2 Epoch rev: 48569 Checksum: 337
Satellite: FO-29 Catalog number: 24278 Epoch time: 06284.94314795 Element set: 0344 Inclination: 098.5194 deg RA of node: 273.3570 deg Eccentricity: 0.0351136 Arg of perigee: 006.9893 deg Mean anomaly: 353.5975 deg Mean motion: 13.52925094 rev/day Decay rate: -.00000000 rev/day^2 Epoch rev: 50133 Checksum: 317
Satellite: SO-33 Catalog number: 25509 Epoch time: 06284.83437599 Element set: 764 Inclination: 031.4305 deg RA of node: 189.8496 deg Eccentricity: 0.0354999 Arg of perigee: 056.1690 deg Mean anomaly: 307.2205 deg Mean motion: 14.28126443 rev/day Decay rate: 3.03e-06 rev/day^2 Epoch rev: 41572 Checksum: 328
Satellite: VO-52 Catalog number: 28650 Epoch time: 06284.72307494 Element set: 0452 Inclination: 097.8604 deg RA of node: 355.6265 deg Eccentricity: 0.0026997 Arg of perigee: 344.8003 deg Mean anomaly: 015.2364 deg Mean motion: 14.81185601 rev/day Decay rate: 2.50e-06 rev/day^2 Epoch rev: 07763 Checksum: 312
/EX SB KEPS @ AMSAT $ORB06285.D Orbital Elements 06285.MICROS
HR AMSAT ORBITAL ELEMENTS FOR THE MICROSATS FROM WA5QGD FORT WORTH,TX October 12, 2006 Send SUBSCRIBE KEPS/UNSUBSCRIBE KEPS to majordomo@amsat.org only BID: ORB06285.D TO ALL RADIO AMATEURS BT
Satellite: AO-16 Catalog number: 20439 Epoch time: 06285.62779642 Element set: 867 Inclination: 098.1903 deg RA of node: 288.9818 deg Eccentricity: 0.0010418 Arg of perigee: 200.4074 deg Mean anomaly: 159.6692 deg Mean motion: 14.31735387 rev/day Decay rate: -5.0e-08 rev/day^2 Epoch rev: 87312 Checksum: 334
Satellite: LO-19 Catalog number: 20442 Epoch time: 06284.58992769 Element set: 0801 Inclination: 098.1858 deg RA of node: 297.5230 deg Eccentricity: 0.0011289 Arg of perigee: 203.6339 deg Mean anomaly: 156.4325 deg Mean motion: 14.31977677 rev/day Decay rate: -3.1e-07 rev/day^2 Epoch rev: 87311 Checksum: 334
Satellite: AO-27 Catalog number: 22825 Epoch time: 06284.52431930 Element set: 0518 Inclination: 098.2972 deg RA of node: 260.7211 deg Eccentricity: 0.0007644 Arg of perigee: 281.3977 deg Mean anomaly: 078.6353 deg Mean motion: 14.29185617 rev/day Decay rate: -2.3e-07 rev/day^2 Epoch rev: 67997 Checksum: 334
Satellite: IO-26 Catalog number: 22826 Epoch time: 06284.89427338 Element set: 0211 Inclination: 098.2917 deg RA of node: 262.2425 deg Eccentricity: 0.0008129 Arg of perigee: 276.5826 deg Mean anomaly: 083.4435 deg Mean motion: 14.29430161 rev/day Decay rate: -3.0e-08 rev/day^2 Epoch rev: 68010 Checksum: 300
Satellite: PO-28 Catalog number: 22829 Epoch time: 06284.69152700 Element set: 493 Inclination: 098.2812 deg RA of node: 263.2455 deg Eccentricity: 0.0008925 Arg of perigee: 248.0903 deg Mean anomaly: 111.9355 deg Mean motion: 14.30126332 rev/day Decay rate: 2.2e-07 rev/day^2 Epoch rev: 68029 Checksum: 296
Satellite: GO-32 Catalog number: 25397 Epoch time: 06285.74560687 Element set: 131 Inclination: 098.4535 deg RA of node: 338.2981 deg Eccentricity: 0.0000832 Arg of perigee: 190.3220 deg Mean anomaly: 169.7936 deg Mean motion: 14.23112554 rev/day Decay rate: 3.9e-07 rev/day^2 Epoch rev: 42896 Checksum: 319
Satellite: MO-46 Catalog number: 26548 Epoch time: 06285.37805727 Element set: 619 Inclination: 064.5570 deg RA of node: 229.2496 deg Eccentricity: 0.0041276 Arg of perigee: 230.7311 deg Mean anomaly: 129.0126 deg Mean motion: 14.83030188 rev/day Decay rate: 3.1e-07 rev/day^2 Epoch rev: 32678 Checksum: 307
Satellite: NO-44 Catalog number: 26931 Epoch time: 06284.70642186 Element set: 0423 Inclination: 067.0521 deg RA of node: 067.5463 deg Eccentricity: 0.0004961 Arg of perigee: 254.2944 deg Mean anomaly: 105.7630 deg Mean motion: 14.29455478 rev/day Decay rate: 1.20e-06 rev/day^2 Epoch rev: 26258 Checksum: 301
Satellite: SO-50 Catalog number: 27607 Epoch time: 06284.74596761 Element set: 0144 Inclination: 064.5570 deg RA of node: 119.2693 deg Eccentricity: 0.0035096 Arg of perigee: 097.9534 deg Mean anomaly: 262.5542 deg Mean motion: 14.71180260 rev/day Decay rate: -3.4e-07 rev/day^2 Epoch rev: 20457 Checksum: 312
Satellite: CO-55 Catalog number: 27844 Epoch time: 06284.59945711 Element set: 868 Inclination: 098.7230 deg RA of node: 291.2944 deg Eccentricity: 0.0010700 Arg of perigee: 087.5150 deg Mean anomaly: 272.7250 deg Mean motion: 14.20462300 rev/day Decay rate: 7.6e-07 rev/day^2 Epoch rev: 17018 Checksum: 300
Satellite: CO-57 Catalog number: 27848 Epoch time: 06285.57516949 Element set: 834 Inclination: 098.7212 deg RA of node: 291.5504 deg Eccentricity: 0.0010681 Arg of perigee: 087.7669 deg Mean anomaly: 272.4731 deg Mean motion: 14.20287787 rev/day Decay rate: 8.0e-08 rev/day^2 Epoch rev: 17030 Checksum: 340
Satellite: AO-51 Catalog number: 28375 Epoch time: 06285.60210605 Element set: 649 Inclination: 098.1511 deg RA of node: 332.2060 deg Eccentricity: 0.0083141 Arg of perigee: 212.2259 deg Mean anomaly: 147.3838 deg Mean motion: 14.40536261 rev/day Decay rate: 2.1e-07 rev/day^2 Epoch rev: 12006 Checksum: 261
Satellite: CO-56 Catalog number: 28941 Epoch time: 06284.82471623 Element set: 0240 Inclination: 098.1695 deg RA of node: 314.8384 deg Eccentricity: 0.0266875 Arg of perigee: 065.6831 deg Mean anomaly: 297.2024 deg Mean motion: 15.28818232 rev/day Decay rate: 1.8554e-04 rev/day^2 Epoch rev: 03534 Checksum: 338
/EX SB KEPS @ AMSAT $ORB06285.W Orbital Elements 06285.WEATHER
HR AMSAT ORBITAL ELEMENTS FOR WEATHER SATELLITES FROM WA5QGD FORT WORTH,TX October 12, 2006 Send SUBSCRIBE KEPS/UNSUBSCRIBE KEPS to majordomo@amsat.org only BID: ORB06285.W TO ALL RADIO AMATEURS BT
Satellite: NOAA-10 Catalog number: 16969 Epoch time: 06285.49522305 Element set: 379 Inclination: 098.7584 deg RA of node: 297.3787 deg Eccentricity: 0.0012342 Arg of perigee: 165.5819 deg Mean anomaly: 194.5726 deg Mean motion: 14.27305664 rev/day Decay rate: -1.9e-07 rev/day^2 Epoch rev: 4389 Checksum: 351
Satellite: NOAA-11 Catalog number: 19531 Epoch time: 06285.11948873 Element set: 326 Inclination: 098.8236 deg RA of node: 012.2547 deg Eccentricity: 0.0011921 Arg of perigee: 020.4861 deg Mean anomaly: 339.6768 deg Mean motion: 14.14819175 rev/day Decay rate: -1.53e-06 rev/day^2 Epoch rev: 93107 Checksum: 309
Satellite: NOAA-12 Catalog number: 21263 Epoch time: 06285.46416584 Element set: 820 Inclination: 098.7403 deg RA of node: 278.3077 deg Eccentricity: 0.0013542 Arg of perigee: 105.5666 deg Mean anomaly: 254.7034 deg Mean motion: 14.25509574 rev/day Decay rate: -4.9e-07 rev/day^2 Epoch rev: 80095 Checksum: 309
Satellite: MET-3/5 Catalog number: 21655 Epoch time: 06284.90360819 Element set: 0214 Inclination: 082.5568 deg RA of node: 178.3451 deg Eccentricity: 0.0013997 Arg of perigee: 106.2531 deg Mean anomaly: 254.0135 deg Mean motion: 13.17007682 rev/day Decay rate: 5.1e-07 rev/day^2 Epoch rev: 72872 Checksum: 298
Satellite: MET-2/21 Catalog number: 22782 Epoch time: 06285.54488363 Element set: 639 Inclination: 082.5473 deg RA of node: 238.3383 deg Eccentricity: 0.0021357 Arg of perigee: 207.6077 deg Mean anomaly: 152.3943 deg Mean motion: 13.83609455 rev/day Decay rate: -8.1e-07 rev/day^2 Epoch rev: 66227 Checksum: 327
Satellite: OKEAN-4 Catalog number: 23317 Epoch time: 06284.72409112 Element set: 0075 Inclination: 082.5407 deg RA of node: 168.3188 deg Eccentricity: 0.0022561 Arg of perigee: 355.5814 deg Mean anomaly: 004.5203 deg Mean motion: 14.82408397 rev/day Decay rate: 2.85e-06 rev/day^2 Epoch rev: 64724 Checksum: 294
Satellite: NOAA-14 Catalog number: 23455 Epoch time: 06285.36431013 Element set: 319 Inclination: 099.0250 deg RA of node: 344.8143 deg Eccentricity: 0.0010053 Arg of perigee: 082.2755 deg Mean anomaly: 277.9579 deg Mean motion: 14.13670996 rev/day Decay rate: 3.63e-06 rev/day^2 Epoch rev: 60762 Checksum: 304
Satellite: SICH-1 Catalog number: 23657 Epoch time: 06284.72978935 Element set: 0877 Inclination: 082.5256 deg RA of node: 309.2132 deg Eccentricity: 0.0023703 Arg of perigee: 344.3538 deg Mean anomaly: 015.6965 deg Mean motion: 14.81398039 rev/day Decay rate: 2.13e-06 rev/day^2 Epoch rev: 59924 Checksum: 332
Satellite: NOAA-15 Catalog number: 25338 Epoch time: 06285.45709872 Element set: 699 Inclination: 098.5225 deg RA of node: 284.2840 deg Eccentricity: 0.0011226 Arg of perigee: 035.6696 deg Mean anomaly: 324.5243 deg Mean motion: 14.24607105 rev/day Decay rate: 1.83e-06 rev/day^2 Epoch rev: 43741 Checksum: 314
